Find Starlink 3716

NORAD ID: 52092 Int'l Des: 2022-029 Owner: SPXS Country: US Constellation: starlink operational
LEOCIRCULAR

当前视图

正在加载3D地球...

About Starlink 3716

Starlink 3716 (NORAD 52092) is a starlink constellation satellite (v1.5) launched Mar 19, 2022 by SPXS of US. It operates in LEO, CIRCULAR orbit with a mass of 297.00 kg.

关于 Starlink 3716

正在加载描述...

即将过境

Passes for default location (London). Set your location on the main map for personalized predictions.

高度历史

Loading altitude history...

两行轨道根数

1 52092U 22029E 26170.89275573 .00000502 00000-0 49635-4 0 9993
2 52092 53.1611 350.1983 0001292 85.2079 274.9060 15.08836678236080
Epoch: Jun 19, 2026 • Age: 54 hours

当前状态

高度 544.9 km
速度 7.59 km/s
星下点 -17.51°S, 5.45°E
发射日期 Mar 19, 2022
运行时间 4.2 years
类型 internet

技术详情

分类 Payload
质量 297.00 kg
干质量 275.00 kg
总质量 297.00 kg
长度 0.20 m
直径 2.80 m
跨度 9.00 m
形状 Box + pan
制造商 SPXS
平台类型 Starlink
阶段状态 In Orbit
所有者/国家 SPXS/US

Most Searched